Longville, MN

2:37 AM CST on November 24, 2017 (GMT -0600)
Longville Municipal

Weather History for KXVG - May, 2013

Change the Weather History Date:

Saturday, May 11, 2013

  Actual Average (KPWC) Record (KPWC)
Temperature  
Mean Temperature 38 °F -  
Max Temperature 44 °F 61 °F 77 °F (2004)
Min Temperature 32 °F 39 °F 30 °F (2013)
Degree Days  
Heating Degree Days 27    
Moisture  
Dew Point 25 °F    
Average Humidity 61    
Maximum Humidity 93    
Minimum Humidity 37    
Precipitation  
Precipitation 0.01 in - - ()
Sea Level Pressure  
Sea Level Pressure 30.11 in    
Wind  
Wind Speed 8 mph (NW)    
Max Wind Speed 20 mph    
Max Gust Speed 29 mph    
Visibility 10 miles    
Events Snow    
Averages and records for this station are not official NWS values.
T = Trace of Precipitation, MM = Missing Value Source: NWS Daily Summary

Daily Weather History Graph

Daily Weather History Graph

Search for Another Location

Airport or City:

Trip Planner

Search our weather history database for the weather conditions in past years. The results will help you decide how hot, cold, wet, or windy it might be!

Date:

Astronomy

May. 11, 2013 Rise Set
Actual Time 5:46 AM CDT 8:40 PM CDT
Civil Twilight 5:10 AM CDT 9:16 PM CDT
Nautical Twilight 4:25 AM CDT 10:02 PM CDT
Astronomical Twilight 3:31 AM CDT 10:56 PM CDT
Moon 6:52 AM CDT (5/11) 10:24 PM CDT (5/11)
Length of Visible Light 16h 05m
Length of Day
14h 54m
Waxing Crescent, 3% of the Moon is Illuminated
May 11
Waxing Crescent
May 17
First Quarter
May 24
Full
May 31
Last Quarter
Jun 8
New

Hourly Weather History & Observations

Time (CDT) Temp. Windchill Dew Point Humidity Pressure Visibility Wind Dir Wind Speed Gust Speed Precip Events Conditions
12:16 AM 39.2 °F 35.9 °F 28.4 °F 65% 30.01 in 10.0 mi North 4.6 mph - N/A   Clear
12:36 AM 39.2 °F 37.0 °F 28.4 °F 65% 30.02 in 10.0 mi North 3.5 mph - N/A   Clear
12:56 AM 37.4 °F - 28.4 °F 70% 30.02 in 10.0 mi Calm Calm - N/A   Clear
1:16 AM 37.4 °F 32.8 °F 28.4 °F 70% 30.02 in 10.0 mi NW 5.8 mph - N/A   Clear
1:36 AM 37.4 °F 33.8 °F 28.4 °F 70% 30.02 in 10.0 mi NW 4.6 mph - N/A   Clear
1:56 AM 37.4 °F 32.8 °F 26.6 °F 65% 30.03 in 10.0 mi NW 5.8 mph - N/A   Clear
2:16 AM 37.4 °F 32.8 °F 26.6 °F 65% 30.03 in 10.0 mi NW 5.8 mph - N/A   Clear
2:36 AM 37.4 °F 32.1 °F 26.6 °F 65% 30.04 in 10.0 mi NW 6.9 mph - N/A   Clear
2:56 AM 35.6 °F 29.9 °F 26.6 °F 70% 30.04 in 10.0 mi NW 6.9 mph 16.1 mph N/A   Clear
3:16 AM 35.6 °F 29.9 °F 26.6 °F 70% 30.04 in 10.0 mi NW 6.9 mph - N/A   Clear
3:36 AM 35.6 °F 29.9 °F 26.6 °F 70% 30.05 in 10.0 mi NW 6.9 mph - N/A   Clear
3:56 AM 35.6 °F 30.7 °F 26.6 °F 70% 30.05 in 10.0 mi WNW 5.8 mph - N/A   Clear
4:16 AM 33.8 °F 27.0 °F 26.6 °F 75% 30.05 in 10.0 mi WNW 8.1 mph - N/A   Clear
4:36 AM 33.8 °F 27.7 °F 26.6 °F 75% 30.05 in 10.0 mi WNW 6.9 mph - N/A   Clear
4:56 AM 35.6 °F 29.9 °F 26.6 °F 70% 30.05 in 10.0 mi WNW 6.9 mph - N/A   Scattered Clouds
5:16 AM 33.8 °F 25.3 °F 28.4 °F 81% 30.06 in 1.8 mi WNW 11.5 mph 28.8 mph N/A Snow Light Snow
5:36 AM 32.0 °F 25.6 °F 30.2 °F 93% 30.07 in 0.8 mi WNW 6.9 mph - 0.01 in Snow Snow
5:56 AM 32.0 °F 24.2 °F 30.2 °F 93% 30.07 in 1.2 mi WNW 9.2 mph - N/A Snow Light Snow
6:16 AM 33.8 °F 27.0 °F 30.2 °F 87% 30.07 in 10.0 mi NW 8.1 mph - N/A   Overcast
6:36 AM 33.8 °F 26.4 °F 32.0 °F 93% 30.07 in 10.0 mi WNW 9.2 mph - N/A   Mostly Cloudy
6:56 AM 33.8 °F 26.4 °F 30.2 °F 87% 30.08 in 10.0 mi WNW 9.2 mph - N/A   Mostly Cloudy
7:16 AM 33.8 °F 25.3 °F 32.0 °F 93% 30.08 in 10.0 mi WNW 11.5 mph 18.4 mph N/A   Mostly Cloudy
7:36 AM 35.6 °F 28.6 °F 30.2 °F 81% 30.08 in 10.0 mi NW 9.2 mph 19.6 mph N/A   Scattered Clouds
7:56 AM 33.8 °F 25.3 °F 30.2 °F 87% 30.09 in 10.0 mi WNW 11.5 mph 18.4 mph N/A   Mostly Cloudy
8:16 AM 35.6 °F 27.5 °F 30.2 °F 81% 30.09 in 10.0 mi NW 11.5 mph 20.7 mph N/A   Overcast
8:36 AM 35.6 °F 29.2 °F 28.4 °F 75% 30.10 in 10.0 mi NW 8.1 mph 23.0 mph N/A   Overcast
8:56 AM 35.6 °F 27.1 °F 30.2 °F 81% 30.11 in 10.0 mi WNW 12.7 mph 18.4 mph N/A   Mostly Cloudy
9:16 AM 35.6 °F 26.6 °F 28.4 °F 75% 30.11 in 10.0 mi NW 13.8 mph 21.9 mph N/A   Mostly Cloudy
9:36 AM 35.6 °F 27.1 °F 28.4 °F 75% 30.12 in 10.0 mi WNW 12.7 mph 24.2 mph N/A   Mostly Cloudy
9:56 AM 35.6 °F 26.2 °F 28.4 °F 75% 30.12 in 10.0 mi WNW 15.0 mph 25.3 mph N/A   Mostly Cloudy
10:16 AM 35.6 °F 27.1 °F 28.4 °F 75% 30.12 in 10.0 mi NW 12.7 mph 21.9 mph N/A   Mostly Cloudy
10:36 AM 35.6 °F 27.1 °F 26.6 °F 70% 30.13 in 10.0 mi NW 12.7 mph 20.7 mph N/A   Mostly Cloudy
10:56 AM 35.6 °F 28.0 °F 24.8 °F 65% 30.13 in 10.0 mi NNW 10.4 mph 20.7 mph N/A   Overcast
11:16 AM 35.6 °F 28.6 °F 26.6 °F 70% 30.13 in 10.0 mi NW 9.2 mph 24.2 mph N/A   Overcast
11:36 AM 37.4 °F 28.5 °F 26.6 °F 65% 30.14 in 10.0 mi WNW 15.0 mph 21.9 mph N/A   Mostly Cloudy
11:56 AM 37.4 °F 30.3 °F 26.6 °F 65% 30.14 in 10.0 mi NW 10.4 mph 20.7 mph N/A   Mostly Cloudy
12:16 PM 39.2 °F 32.0 °F 26.6 °F 61% 30.14 in 10.0 mi NW 11.5 mph 23.0 mph N/A   Mostly Cloudy
12:36 PM 39.2 °F 30.8 °F 26.6 °F 61% 30.14 in 10.0 mi WNW 15.0 mph 25.3 mph N/A   Mostly Cloudy
12:56 PM 39.2 °F 32.0 °F 26.6 °F 61% 30.14 in 10.0 mi WNW 11.5 mph 26.5 mph N/A   Scattered Clouds
1:36 PM 41.0 °F 35.2 °F 24.8 °F 53% 30.14 in 10.0 mi NW 9.2 mph 27.6 mph N/A   Scattered Clouds
1:56 PM 42.8 °F 36.2 °F 24.8 °F 49% 30.14 in 10.0 mi NW 12.7 mph 28.8 mph N/A   Scattered Clouds
2:16 PM 42.8 °F 35.4 °F 23.0 °F 46% 30.15 in 10.0 mi NW 15.0 mph 25.3 mph N/A   Scattered Clouds
2:36 PM 42.8 °F 37.0 °F 24.8 °F 49% 30.15 in 10.0 mi NW 10.4 mph 26.5 mph N/A   Scattered Clouds
2:56 PM 44.6 °F 38.4 °F 24.8 °F 46% 30.15 in 10.0 mi NW 12.7 mph 24.2 mph N/A   Scattered Clouds
3:16 PM 44.6 °F 36.6 °F 24.8 °F 46% 30.15 in 10.0 mi WNW 19.6 mph 28.8 mph N/A   Scattered Clouds
3:36 PM 44.6 °F 38.8 °F 24.8 °F 46% 30.15 in 10.0 mi NNW 11.5 mph 27.6 mph N/A   Scattered Clouds
3:56 PM 44.6 °F 39.7 °F 23.0 °F 43% 30.15 in 10.0 mi NW 9.2 mph 25.3 mph N/A   Scattered Clouds
4:16 PM 44.6 °F 39.2 °F 24.8 °F 46% 30.15 in 10.0 mi NW 10.4 mph 26.5 mph N/A   Scattered Clouds
4:36 PM 44.6 °F 38.1 °F 21.2 °F 39% 30.15 in 10.0 mi NW 13.8 mph 25.3 mph N/A   Scattered Clouds
4:56 PM 44.6 °F 37.8 °F 21.2 °F 39% 30.15 in 10.0 mi WNW 15.0 mph 25.3 mph N/A   Scattered Clouds
5:16 PM 44.6 °F 38.8 °F 21.2 °F 39% 30.15 in 10.0 mi NW 11.5 mph 23.0 mph N/A   Scattered Clouds
5:36 PM 44.6 °F 38.1 °F 21.2 °F 39% 30.15 in 10.0 mi WNW 13.8 mph 20.7 mph N/A   Scattered Clouds
5:56 PM 44.6 °F 38.1 °F 19.4 °F 37% 30.15 in 10.0 mi NW 13.8 mph 21.9 mph N/A   Scattered Clouds
6:16 PM 44.6 °F 37.8 °F 21.2 °F 39% 30.16 in 10.0 mi WNW 15.0 mph 25.3 mph N/A   Clear
6:36 PM 44.6 °F 40.7 °F 19.4 °F 37% 30.15 in 10.0 mi NNW 6.9 mph 18.4 mph N/A   Clear
6:56 PM 44.6 °F 39.2 °F 19.4 °F 37% 30.16 in 10.0 mi NW 10.4 mph 21.9 mph N/A   Clear
7:16 PM 44.6 °F 40.2 °F 19.4 °F 37% 30.15 in 10.0 mi NNW 8.1 mph 18.4 mph N/A   Clear
7:36 PM 44.6 °F 41.4 °F 19.4 °F 37% 30.16 in 10.0 mi NNW 5.8 mph 18.4 mph N/A   Clear
7:56 PM 42.8 °F 37.5 °F 19.4 °F 39% 30.16 in 10.0 mi NNW 9.2 mph 17.3 mph N/A   Clear
8:17 PM 42.8 °F 40.1 °F 19.4 °F 39% 30.16 in 10.0 mi NNW 4.6 mph - N/A   Clear
8:36 PM 41.0 °F 37.1 °F 19.4 °F 42% 30.16 in 10.0 mi NW 5.8 mph - N/A   Clear
8:56 PM 39.2 °F 35.9 °F 21.2 °F 49% 30.16 in 10.0 mi NNW 4.6 mph - N/A   Clear
9:16 PM 39.2 °F 35.0 °F 21.2 °F 49% 30.17 in 10.0 mi NNW 5.8 mph - N/A   Clear
9:36 PM 37.4 °F 34.9 °F 21.2 °F 52% 30.17 in 10.0 mi North 3.5 mph - N/A   Clear
9:56 PM 37.4 °F - 21.2 °F 52% 30.18 in 10.0 mi Calm Calm - N/A   Clear
10:16 PM 37.4 °F - 21.2 °F 52% 30.17 in 10.0 mi Calm Calm - N/A   Clear
10:36 PM 35.6 °F 32.8 °F 21.2 °F 56% 30.17 in 10.0 mi North 3.5 mph - N/A   Clear
10:56 PM 35.6 °F - 21.2 °F 56% 30.18 in 10.0 mi Calm Calm - N/A   Clear
11:16 PM 35.6 °F - 21.2 °F 56% 30.17 in 10.0 mi Calm Calm - N/A   Clear
11:36 PM 33.8 °F - 21.2 °F 60% 30.17 in 10.0 mi Calm Calm - N/A   Clear
11:56 PM 33.8 °F - 23.0 °F 65% 30.18 in 10.0 mi Calm Calm - N/A   Clear